DAL419 KSEA-PHNL

Flight info

Callsign DAL419
Flight time N/A
Altitude 36000
Route HAROB6 HQM SEDAR FOZZI HEKAB A332 HELOP/N0474F380 A332 AUNTI AHHEE
Aircraft A339/H-SADE1E2E3GHIJ3J5M1P2RWXY/LB2D1

Departure

Time N/A
Airport Seattle–Tacoma International Airport (KSEA)

Arrival

Time 2026-05-08 06:40
Airport Daniel K. Inouye International Airport (PHNL)
Time Latitude Longitude Altitude Speed Heading
2026-05-08 05:54 24.04621 -155.78633 38168 ft 455 kts 217°
2026-05-08 05:55 23.99530 -155.82551 38163 ft 455 kts 217°
2026-05-08 05:55 23.94384 -155.86507 38138 ft 455 kts 217°
2026-05-08 05:56 23.89206 -155.90484 38132 ft 455 kts 217°
2026-05-08 05:56 23.84247 -155.94735 38148 ft 452 kts 225°
2026-05-08 05:57 23.79787 -155.99561 38154 ft 451 kts 227°
2026-05-08 05:57 23.75327 -156.04380 38152 ft 451 kts 226°
2026-05-08 05:58 23.70862 -156.09188 38147 ft 451 kts 227°
2026-05-08 05:58 23.66399 -156.13988 38148 ft 451 kts 227°
2026-05-08 05:59 23.61934 -156.18784 38151 ft 450 kts 227°
2026-05-08 05:59 23.57474 -156.23571 38150 ft 450 kts 227°
2026-05-08 06:00 23.53010 -156.28357 38148 ft 450 kts 227°
2026-05-08 06:00 23.48552 -156.33133 38145 ft 449 kts 227°
2026-05-08 06:01 23.44092 -156.37904 38145 ft 449 kts 227°
2026-05-08 06:01 23.39639 -156.42664 38140 ft 449 kts 227°
2026-05-08 06:02 23.35182 -156.47424 38136 ft 449 kts 227°
2026-05-08 06:02 23.30726 -156.52178 38145 ft 448 kts 227°
2026-05-08 06:03 23.26276 -156.56919 38141 ft 448 kts 227°
2026-05-08 06:03 23.21820 -156.61663 38140 ft 448 kts 227°
2026-05-08 06:04 23.17400 -156.66364 38144 ft 447 kts 227°
2026-05-08 06:04 23.12951 -156.71092 38139 ft 447 kts 227°
2026-05-08 06:05 23.08507 -156.75809 38143 ft 447 kts 227°
2026-05-08 06:05 23.04066 -156.80520 38145 ft 446 kts 227°
2026-05-08 06:06 22.99622 -156.85229 38143 ft 446 kts 227°
2026-05-08 06:06 22.95182 -156.89927 38141 ft 446 kts 227°
2026-05-08 06:07 22.90745 -156.94619 38139 ft 445 kts 227°
2026-05-08 06:07 22.86310 -156.99305 38139 ft 445 kts 227°
2026-05-08 06:08 22.81878 -157.03982 38138 ft 445 kts 228°
2026-05-08 06:08 22.77449 -157.08653 38141 ft 444 kts 228°
2026-05-08 06:09 22.72856 -157.13154 38079 ft 450 kts 218°
2026-05-08 06:09 22.70092 -157.14794 37785 ft 458 kts 207°
2026-05-08 06:09 22.67026 -157.15829 37287 ft 467 kts 195°
2026-05-08 06:09 22.63766 -157.16187 36781 ft 475 kts 184°
2026-05-08 06:10 22.60461 -157.15838 36285 ft 482 kts 172°
2026-05-08 06:10 22.57274 -157.14802 35808 ft 488 kts 161°
2026-05-08 06:10 22.54211 -157.13183 35342 ft 491 kts 156°
2026-05-08 06:10 22.51137 -157.11615 34860 ft 488 kts 161°
2026-05-08 06:11 22.47947 -157.10382 34402 ft 486 kts 166°
2026-05-08 06:11 22.44768 -157.09456 33928 ft 484 kts 169°
2026-05-08 06:11 22.41478 -157.08673 33410 ft 484 kts 171°
2026-05-08 06:11 22.38176 -157.07963 32892 ft 485 kts 172°
2026-05-08 06:12 22.34862 -157.07273 32391 ft 485 kts 172°
2026-05-08 06:12 22.31542 -157.06583 31898 ft 486 kts 172°
2026-05-08 06:12 22.28226 -157.05889 31414 ft 484 kts 172°
2026-05-08 06:12 22.24934 -157.05194 30936 ft 480 kts 171°
2026-05-08 06:13 22.21672 -157.04504 30471 ft 475 kts 171°
2026-05-08 06:13 22.18436 -157.03820 29972 ft 470 kts 171°
2026-05-08 06:13 22.15236 -157.03143 29431 ft 466 kts 171°
2026-05-08 06:13 22.12064 -157.02473 28896 ft 463 kts 171°
2026-05-08 06:14 22.08917 -157.01808 28384 ft 459 kts 171°
2026-05-08 06:14 22.05799 -157.01149 27871 ft 455 kts 171°
2026-05-08 06:14 22.02702 -157.00495 27372 ft 451 kts 171°
2026-05-08 06:14 21.99671 -156.99855 26887 ft 448 kts 171°
2026-05-08 06:15 21.96624 -156.99212 26406 ft 444 kts 171°
2026-05-08 06:15 21.93600 -156.98573 25931 ft 441 kts 171°
2026-05-08 06:15 21.90601 -156.97983 25460 ft 436 kts 175°
2026-05-08 06:15 21.87594 -156.97945 24996 ft 430 kts 187°
2026-05-08 06:16 21.84682 -156.98616 24461 ft 427 kts 200°
2026-05-08 06:16 21.82007 -156.99969 23952 ft 424 kts 212°
2026-05-08 06:16 21.79717 -157.01929 23398 ft 418 kts 225°
2026-05-08 06:16 21.77876 -157.04316 22857 ft 413 kts 232°
2026-05-08 06:17 21.74297 -157.09126 21741 ft 411 kts 231°
2026-05-08 06:17 21.72481 -157.11496 21207 ft 410 kts 230°
2026-05-08 06:17 21.70659 -157.13847 20682 ft 408 kts 230°
2026-05-08 06:18 21.68846 -157.16176 20157 ft 404 kts 230°
2026-05-08 06:18 21.67048 -157.18483 19641 ft 401 kts 230°
2026-05-08 06:18 21.65261 -157.20775 19134 ft 399 kts 231°
2026-05-08 06:18 21.63483 -157.23056 18643 ft 398 kts 231°
2026-05-08 06:19 21.61707 -157.25334 18113 ft 396 kts 231°
2026-05-08 06:19 21.59950 -157.27587 17551 ft 391 kts 231°
2026-05-08 06:19 21.58213 -157.29814 17005 ft 387 kts 231°
2026-05-08 06:19 21.56490 -157.32023 16445 ft 384 kts 231°
2026-05-08 06:20 21.54784 -157.34208 15929 ft 379 kts 231°
2026-05-08 06:20 21.53099 -157.36367 15404 ft 376 kts 231°
2026-05-08 06:20 21.51421 -157.38515 14927 ft 374 kts 231°
2026-05-08 06:20 21.49757 -157.40644 14458 ft 371 kts 231°
2026-05-08 06:21 21.48108 -157.42755 14009 ft 368 kts 231°
2026-05-08 06:21 21.46469 -157.44851 13515 ft 365 kts 231°
2026-05-08 06:22 21.46010 -157.45438 13364 ft 364 kts 231°
2026-05-08 06:22 21.44618 -157.47219 12936 ft 361 kts 231°
2026-05-08 06:22 21.43009 -157.49276 12446 ft 359 kts 231°
2026-05-08 06:22 21.41429 -157.51296 11968 ft 358 kts 230°
2026-05-08 06:23 21.39829 -157.53337 11490 ft 355 kts 230°
2026-05-08 06:23 21.38254 -157.55347 11012 ft 347 kts 230°
2026-05-08 06:23 21.36740 -157.57277 10543 ft 330 kts 230°
2026-05-08 06:23 21.35298 -157.59115 10080 ft 314 kts 230°
2026-05-08 06:24 21.33921 -157.60871 9574 ft 301 kts 230°
2026-05-08 06:24 21.32603 -157.62551 9075 ft 289 kts 230°
2026-05-08 06:24 21.31317 -157.64192 8660 ft 286 kts 230°
2026-05-08 06:24 21.30032 -157.65828 8301 ft 288 kts 229°
2026-05-08 06:25 21.28752 -157.67456 8050 ft 284 kts 229°
2026-05-08 06:25 21.27476 -157.69079 7811 ft 285 kts 229°
2026-05-08 06:25 21.26116 -157.70617 7562 ft 283 kts 218°
2026-05-08 06:25 21.24515 -157.71844 7333 ft 283 kts 214°
2026-05-08 06:26 21.22906 -157.73054 7102 ft 282 kts 214°
2026-05-08 06:26 21.21305 -157.74262 6860 ft 282 kts 214°
2026-05-08 06:26 21.19707 -157.75468 6623 ft 280 kts 214°
2026-05-08 06:26 21.18116 -157.76674 6389 ft 280 kts 214°
2026-05-08 06:27 21.16532 -157.77881 6149 ft 279 kts 214°
2026-05-08 06:27 21.14953 -157.79087 6002 ft 278 kts 214°
2026-05-08 06:27 21.13376 -157.80289 5987 ft 279 kts 214°
2026-05-08 06:27 21.11794 -157.81496 5990 ft 279 kts 214°
2026-05-08 06:28 21.10213 -157.82702 5995 ft 280 kts 214°
2026-05-08 06:28 21.08623 -157.83914 5987 ft 279 kts 214°
2026-05-08 06:28 21.07076 -157.85156 5978 ft 279 kts 223°
2026-05-08 06:28 21.05935 -157.86842 5994 ft 282 kts 239°
2026-05-08 06:29 21.04958 -157.88654 5990 ft 281 kts 239°
2026-05-08 06:29 21.03976 -157.90467 5988 ft 281 kts 239°
2026-05-08 06:29 21.02997 -157.92276 5986 ft 281 kts 239°
2026-05-08 06:29 21.02017 -157.94092 5985 ft 281 kts 239°
2026-05-08 06:30 21.01039 -157.95904 5992 ft 281 kts 239°
2026-05-08 06:30 21.00061 -157.97712 5993 ft 281 kts 239°
2026-05-08 06:30 20.99080 -157.99520 5991 ft 281 kts 239°
2026-05-08 06:30 20.98112 -158.01305 5897 ft 281 kts 239°
2026-05-08 06:31 20.97188 -158.03176 5628 ft 281 kts 250°
2026-05-08 06:31 20.96927 -158.05187 5388 ft 268 kts 275°
2026-05-08 06:31 20.97454 -158.06981 5162 ft 252 kts 302°
2026-05-08 06:31 20.98540 -158.08369 4927 ft 238 kts 314°
2026-05-08 06:32 20.99712 -158.09555 4650 ft 228 kts 330°
2026-05-08 06:32 21.01206 -158.10057 4427 ft 227 kts
2026-05-08 06:32 21.02759 -158.09911 4183 ft 222 kts
2026-05-08 06:32 21.04281 -158.09727 3936 ft 219 kts
2026-05-08 06:33 21.05798 -158.09547 3721 ft 220 kts
2026-05-08 06:33 21.07308 -158.09364 3470 ft 217 kts
2026-05-08 06:33 21.08814 -158.09182 3222 ft 216 kts
2026-05-08 06:33 21.10298 -158.09000 2971 ft 213 kts 10°
2026-05-08 06:34 21.11762 -158.08822 2729 ft 211 kts
2026-05-08 06:34 21.13225 -158.08644 2482 ft 212 kts
2026-05-08 06:34 21.14681 -158.08470 2230 ft 209 kts
2026-05-08 06:34 21.16135 -158.08304 2039 ft 210 kts
2026-05-08 06:35 21.17568 -158.08143 2005 ft 201 kts
2026-05-08 06:35 21.18937 -158.07997 2004 ft 198 kts
2026-05-08 06:35 21.20320 -158.07837 2002 ft 199 kts 10°
2026-05-08 06:35 21.21698 -158.07677 2005 ft 198 kts 13°
2026-05-08 06:36 21.22960 -158.07126 2010 ft 196 kts 39°
2026-05-08 06:36 21.23764 -158.05972 2031 ft 197 kts 64°
2026-05-08 06:36 21.24320 -158.04632 1996 ft 194 kts 67°
2026-05-08 06:36 21.24651 -158.03748 2004 ft 194 kts 67°
2026-05-08 06:37 21.25161 -158.02388 2004 ft 196 kts 66°
2026-05-08 06:37 21.25900 -158.00640 2003 ft 194 kts 59°
2026-05-08 06:37 21.26428 -157.99849 2005 ft 192 kts 52°
2026-05-08 06:37 21.27560 -157.98412 1613 ft 186 kts 51°
2026-05-08 06:38 21.28088 -157.97675 1387 ft 182 kts 53°
2026-05-08 06:38 21.29008 -157.96300 1061 ft 161 kts 53°
2026-05-08 06:38 21.29440 -157.95660 892 ft 151 kts 53°
2026-05-08 06:38 21.30041 -157.94795 636 ft 140 kts 52°
2026-05-08 06:39 21.30644 -157.93992 371 ft 139 kts 51°
2026-05-08 06:39 21.31250 -157.93157 220 ft 144 kts 52°
2026-05-08 06:39 21.31861 -157.92303 54 ft 144 kts 52°
2026-05-08 06:39 21.32375 -157.91574 30 ft 82 kts 53°
2026-05-08 06:40 21.32574 -157.91288 30 ft 36 kts 53°
2026-05-08 06:40 21.32722 -157.91081 30 ft 33 kts 52°
2026-05-08 06:40 21.32859 -157.90892 30 ft 31 kts 52°
2026-05-08 06:40 21.32958 -157.90757 29 ft 19 kts 45°
2026-05-08 06:41 21.33038 -157.90776 29 ft 10 kts 306°
2026-05-08 06:41 21.33038 -157.90849 30 ft 10 kts 265°
2026-05-08 06:41 21.33007 -157.90923 30 ft 12 kts 238°
2026-05-08 06:41 21.32952 -157.90997 30 ft 13 kts 231°
2026-05-08 06:42 21.32890 -157.91082 30 ft 15 kts 233°
2026-05-08 06:42 21.32819 -157.91185 30 ft 20 kts 233°
2026-05-08 06:42 21.32727 -157.91315 30 ft 23 kts 232°
2026-05-08 06:42 21.32690 -157.91474 30 ft 23 kts 271°
2026-05-08 06:43 21.32691 -157.91639 30 ft 24 kts 270°
2026-05-08 06:43 21.32692 -157.91823 30 ft 24 kts 270°
2026-05-08 06:43 21.32693 -157.92008 30 ft 25 kts 270°
2026-05-08 06:43 21.32693 -157.92181 30 ft 15 kts 270°
2026-05-08 06:44 21.32747 -157.92247 30 ft 13 kts 353°
2026-05-08 06:44 21.32782 -157.92198 30 ft 8 kts 94°
2026-05-08 06:44 21.32786 -157.92138 30 ft 7 kts 70°
2026-05-08 06:44 21.32827 -157.92107 28 ft 7 kts 36°
2026-05-08 06:45 21.32852 -157.92083 30 ft 2 kts 44°
2026-05-08 06:45 21.32865 -157.92070 30 ft 2 kts 44°
2026-05-08 06:45 21.32868 -157.92066 30 ft 0 kts 44°